{"data":{"norad_id":66167,"epoch":"2026-09-20T07:20:04.848288Z","epoch_age_seconds":117183,"freshness":"FRESH","line1":"1 66167U 25240X   26263.30561167  .00014076  00000+0  42695-3 0  9993","line2":"2 66167  53.1575 234.6725 0001355  85.2218 274.8940 15.34400665 51849","mean_motion":15.34400665,"eccentricity":0.0001355,"inclination_deg":53.1575,"raan_deg":234.6725,"arg_perigee_deg":85.2218,"mean_anomaly_deg":274.894,"bstar":0.00042695,"rev_number":5184,"period_min":93.847717408282,"perigee_km":461.77433010295,"apogee_km":463.62819727241,"semimajor_km":6840.8382636877,"source":"CELESTRAK","updated_at":"2026-09-21T09:00:35.831589Z"}}